Kalamata, Greece

10:56 AM EET on February 23, 2018 (GMT +0200)
Kalamata Air Base

Weather History for LGKL - October, 2011

Change the Weather History Date:

Tuesday, October 18, 2011

  Actual Average Record
Temperature  
Mean Temperature 54 °F -  
Max Temperature 66 °F 72 °F 84 °F (2012)
Min Temperature 41 °F 52 °F 41 °F (2011)
Degree Days  
Heating Degree Days 12    
Growing Degree Days 4 (Base 50)    
Moisture  
Dew Point 41 °F    
Average Humidity 61    
Maximum Humidity 87    
Minimum Humidity 40    
Precipitation  
Precipitation 0.00 in 0.16 in - ()
Sea Level Pressure  
Sea Level Pressure 30.18 in    
Wind  
Wind Speed 2 mph ()    
Max Wind Speed 7 mph    
Max Gust Speed -    
Visibility 6.2 miles    
Events      
Averages and records for this station are not official NWS values.
T = Trace of Precipitation, MM = Missing Value Source: Averaged Metar Reports

Daily Weather History Graph

Daily Weather History Graph

Search for Another Location

Airport or City:

Trip Planner

Search our weather history database for the weather conditions in past years. The results will help you decide how hot, cold, wet, or windy it might be!

Date:

Astronomy

Oct. 18, 2011 Rise Set
Actual Time 7:41 AM EEST 6:51 PM EEST
Civil Twilight 7:15 AM EEST 7:18 PM EEST
Nautical Twilight 6:45 AM EEST 7:48 PM EEST
Astronomical Twilight 6:15 AM EEST 8:18 PM EEST
Moon 11:18 PM EEST (10/18) 1:14 PM EEST (10/18)
Length of Visible Light 12h 02m
Length of Day
11h 09m
Waning Gibbous, 68% of the Moon is Illuminated
Oct 18
Waning Gibbous
Oct 20
Last Quarter
Oct 26
New
Nov 2
First Quarter
Nov 10
Full

Hourly Weather History & Observations

Time (EEST) Temp. Windchill Dew Point Humidity Pressure Visibility Wind Dir Wind Speed Gust Speed Precip Events Conditions
2:50 AM 46.4 °F 43.5 °F 37.4 °F 71% 30.09 in - NNW 5.8 mph - N/A   Clear
5:50 AM 42.8 °F 40.1 °F 37.4 °F 81% 30.09 in - NNW 4.6 mph - N/A   Clear
6:20 AM 42.8 °F 40.1 °F 37.4 °F 81% 30.12 in - NNW 4.6 mph - N/A   Clear
6:50 AM 42.8 °F - 37.4 °F 81% 30.12 in 6.2 mi Calm Calm - N/A   Partly Cloudy
7:20 AM 42.8 °F - 37.4 °F 81% 30.12 in 6.2 mi Calm Calm - N/A   Partly Cloudy
7:50 AM 41.0 °F 38.0 °F 37.4 °F 87% 30.12 in 6.2 mi NNW 4.6 mph - N/A   Partly Cloudy
8:20 AM 42.8 °F 40.1 °F 37.4 °F 81% 30.15 in 6.2 mi NNW 4.6 mph - N/A   Partly Cloudy
8:50 AM 44.6 °F - 39.2 °F 81% 30.15 in 6.2 mi Calm Calm - N/A   Scattered Clouds
9:20 AM 48.2 °F - 39.2 °F 71% 30.15 in 6.2 mi Calm Calm - N/A   Scattered Clouds
9:50 AM 51.8 °F - 41.0 °F 67% 30.18 in 6.2 mi Calm Calm - N/A   Scattered Clouds
10:20 AM 53.6 °F - 41.0 °F 62% 30.18 in 6.2 mi Calm Calm - N/A   Scattered Clouds
10:50 AM 57.2 °F - 42.8 °F 59% 30.18 in 6.2 mi Calm Calm - N/A   Scattered Clouds
11:20 AM 57.2 °F - 42.8 °F 59% 30.18 in 6.2 mi Calm Calm - N/A   Scattered Clouds
11:50 AM 62.6 °F - 41.0 °F 45% 30.21 in 6.2 mi Calm Calm - N/A   Partly Cloudy
12:20 PM 62.6 °F - 41.0 °F 45% 30.21 in 6.2 mi Calm Calm - N/A   Scattered Clouds
12:50 PM 62.6 °F - 41.0 °F 45% 30.18 in 6.2 mi Calm Calm - N/A   Scattered Clouds
1:20 PM 62.6 °F - 41.0 °F 45% 30.18 in 6.2 mi Calm Calm - N/A   Scattered Clouds
2:20 PM 66.2 °F - 42.8 °F 43% 30.18 in 6.2 mi Calm Calm - N/A   Scattered Clouds
2:50 PM 64.4 °F - 42.8 °F 45% 30.18 in 6.2 mi South 5.8 mph - N/A   Scattered Clouds
3:20 PM 66.2 °F - 42.8 °F 43% 30.18 in 6.2 mi South 5.8 mph - N/A   Scattered Clouds
3:50 PM 66.2 °F - 42.8 °F 43% 30.18 in 6.2 mi SSW 4.6 mph - N/A   Scattered Clouds
4:20 PM 64.4 °F - 42.8 °F 45% 30.18 in 6.2 mi South 6.9 mph - N/A   Partly Cloudy
4:50 PM 66.2 °F - 44.6 °F 46% 30.18 in 6.2 mi SSW 4.6 mph - N/A   Partly Cloudy
5:20 PM 66.2 °F - 41.0 °F 40% 30.18 in 6.2 mi SSW 4.6 mph - N/A   Partly Cloudy
5:50 PM 66.2 °F - 44.6 °F 46% 30.18 in 6.2 mi Calm Calm - N/A   Partly Cloudy
6:20 PM 62.6 °F - 39.2 °F 42% 30.18 in 6.2 mi Calm Calm - N/A   Partly Cloudy
6:50 PM 59.0 °F - 41.0 °F 51% 30.21 in 6.2 mi NNE 4.6 mph - N/A   Partly Cloudy
7:20 PM 55.4 °F - 41.0 °F 58% 30.21 in 6.2 mi NNE 4.6 mph - N/A   Partly Cloudy
7:50 PM 51.8 °F - 44.6 °F 76% 30.21 in 6.2 mi Calm Calm - N/A   Partly Cloudy
8:20 PM 51.8 °F - 42.8 °F 71% 30.24 in 6.2 mi NW 4.6 mph - N/A   Partly Cloudy
8:50 PM 50.0 °F - 44.6 °F 82% 30.27 in 6.2 mi Calm Calm - N/A   Partly Cloudy
11:50 PM 46.4 °F 43.5 °F 41.0 °F 81% 30.27 in - NNW 5.8 mph - N/A   Clear